Location: Ferchesar
(52.6477°N, 12.4298°E)
Time: 23:16:24
(UTC+01:00)

TIGRISAT - Pass Details

Date: 23 October 2021
Orbit: 603 x 689 km, 97.7° (Epoch: 30 November)

Event Time Altitude Azimuth Distance (km) Brightness Sun altitude
Rises 21:04:12 0° 9° (N) 2,997 ? -28.6°
Reaches altitude 10° 21:06:31 10° 4° (N) 2,066 ? -29.0°
Enters shadow 21:10:19 43° 312° (NW) 902 ? -29.5°
Exits shadow 21:13:45 18° 227° (SW) 1,550 ? -30.0°
Drops below altitude 10° 21:14:57 10° 220° (SW) 2,001 ? -30.2°
Sets 21:17:10 0° 214° (SW) 2,891 ? -30.5°
